Weather History for Findlay, OH

Change the Weather History Date:

Friday, April 5, 2013

  Actual Average Record
Temperature  
Mean Temperature 44 °F -  
Max Temperature 55 °F 52 °F 81 °F (1988)
Min Temperature 34 °F 34 °F 20 °F (1975)
Degree Days  
Heating Degree Days 21    
Moisture  
Dew Point 22 °F    
Average Humidity 47    
Maximum Humidity 67    
Minimum Humidity 19    
Precipitation  
Precipitation 0.00 in - - ()
Sea Level Pressure  
Sea Level Pressure 30.06 in    
Wind  
Wind Speed 7 mph (North)    
Max Wind Speed 18 mph    
Max Gust Speed 23 mph    
Visibility 10 miles    
Events      
Averages and records for this station are not official NWS values.
T = Trace of Precipitation, MM = Missing Value Source: NWS Daily Summary

Daily Weather History Graph

Daily Weather History Graph

Search for Another Location

Airport:

Trip Planner

Search our weather history database for the weather conditions in past years. The results will help you decide how hot, cold, wet, or windy it might be!

Date:

Astronomy

Apr. 05, 2013 Rise Set
Actual Time 7:11 AM EDT 8:04 PM EDT
Civil Twilight 6:43 AM EDT 8:32 PM EDT
Nautical Twilight 6:10 AM EDT 9:05 PM EDT
Astronomical Twilight 5:35 AM EDT 9:39 PM EDT
Moon 4:19 AM EDT (4/5) 3:24 PM EDT (4/5)
Length of Visible Light 13h 48m
Length of Day
12h 53m
Waning Crescent, 24% of the Moon is Illuminated
Apr 5
Waning Crescent
Apr 10
New
Apr 18
First Quarter
Apr 25
Full
May 2
Last Quarter

Hourly Weather History & Observations

Time (EDT) Temp. Windchill Dew Point Humidity Pressure Visibility Wind Dir Wind Speed Gust Speed Precip Events Conditions
12:53 AM 35.1 °F 31.0 °F 19.0 °F 52% 29.96 in 10.0 mi WSW 4.6 mph - N/A   Clear
1:53 AM 35.1 °F 32.2 °F 19.0 °F 52% 29.96 in 10.0 mi WSW 3.5 mph - N/A   Clear
2:53 AM 34.0 °F 31.0 °F 19.0 °F 54% 29.94 in 10.0 mi SSW 3.5 mph - N/A   Clear
3:53 AM 35.1 °F 32.2 °F 21.9 °F 59% 29.94 in 10.0 mi SSW 3.5 mph - N/A   Overcast
4:53 AM 35.1 °F - 21.0 °F 57% 29.94 in 10.0 mi Calm Calm - N/A   Scattered Clouds
5:53 AM 34.0 °F 31.0 °F 23.0 °F 64% 29.96 in 10.0 mi West 3.5 mph - N/A   Mostly Cloudy
6:53 AM 37.9 °F 35.5 °F 21.9 °F 53% 29.98 in 10.0 mi NW 3.5 mph - N/A   Overcast
7:53 AM 39.9 °F 33.4 °F 24.1 °F 53% 30.01 in 10.0 mi NNE 10.4 mph - N/A   Overcast
8:53 AM 41.0 °F 32.2 °F 30.0 °F 65% 30.06 in 10.0 mi NE 18.4 mph 23.0 mph N/A   Partly Cloudy
9:53 AM 42.1 °F 34.2 °F 32.0 °F 67% 30.07 in 7.0 mi ENE 16.1 mph - N/A   Partly Cloudy
10:53 AM 45.0 °F 38.9 °F 32.0 °F 60% 30.09 in 8.0 mi NE 12.7 mph - N/A   Clear
11:53 AM 48.0 °F - 30.0 °F 50% 30.10 in 10.0 mi NNE 13.8 mph 21.9 mph N/A   Clear
12:53 PM 48.9 °F - 28.9 °F 46% 30.10 in 10.0 mi North 10.4 mph - N/A   Partly Cloudy
1:53 PM 50.0 °F - 28.0 °F 43% 30.10 in 10.0 mi North 11.5 mph 17.3 mph N/A   Partly Cloudy
2:53 PM 54.0 °F - 25.0 °F 33% 30.09 in 10.0 mi NW 11.5 mph - N/A   Scattered Clouds
3:53 PM 53.1 °F - 21.0 °F 29% 30.07 in 10.0 mi NNW 8.1 mph - N/A   Clear
4:53 PM 53.1 °F - 15.1 °F 22% 30.06 in 10.0 mi North 10.4 mph 17.3 mph N/A   Clear
5:53 PM 53.1 °F - 12.0 °F 20% 30.07 in 10.0 mi NNW 11.5 mph - N/A   Clear
6:53 PM 51.1 °F - 10.0 °F 19% 30.09 in 10.0 mi North 6.9 mph - N/A   Clear
7:53 PM 46.0 °F 41.4 °F 19.0 °F 34% 30.11 in 10.0 mi ENE 9.2 mph - N/A   Clear
8:53 PM 42.1 °F 36.6 °F 19.0 °F 40% 30.14 in 10.0 mi ENE 9.2 mph - N/A   Clear
9:53 PM 39.0 °F 33.4 °F 21.0 °F 49% 30.17 in 10.0 mi East 8.1 mph - N/A   Clear
10:53 PM 37.0 °F 29.3 °F 21.0 °F 52% 30.18 in 10.0 mi East 11.5 mph - N/A   Clear
11:53 PM 35.1 °F 27.9 °F 24.1 °F 64% 30.19 in 10.0 mi East 9.2 mph - N/A   Clear